Theta_e
297 300 302 302 309 310 320 313 324 331 333 335 332 327 329 336 339 338 336 335 334 334 332 331 329 325 321 320 319 321 326 326 326 327 327 327 327 327 327 326 326 325 323
296 298 296 302 302 304 311 309 317 322 327 327 331 329 331 324 335 338 337 336 334 334 333 333 333 331 325 321 318 324 325 326 327 326 327 328 328 328 328 328 327 327 326
295 295 296 297 299 301 302 305 309 313 320 325 323 325 323 319 320 332 337 336 335 334 334 333 331 332 330 324 319 319 320 322 328 326 326 326 326 328 329 329 328 327 326
295 295 295 296 295 296 297 301 303 303 305 313 311 316 321 323 320 324 329 334 335 334 333 333 334 332 332 331 323 320 322 325 328 327 327 326 326 325 328 329 329 327 327
294 294 295 295 295 296 295 297 299 302 302 302 305 305 306 315 317 321 324 329 333 333 332 332 333 333 331 331 331 327 324 326 328 328 327 326 326 326 326 328 328 328 327
293 293 294 294 294 295 295 296 296 296 298 300 303 303 305 305 307 312 320 326 331 329 332 331 332 334 333 333 331 331 328 326 328 328 328 327 327 326 326 327 328 328 327
294 294 293 293 294 294 294 295 295 296 296 296 297 300 302 303 303 308 314 322 321 323 330 330 333 331 333 332 332 332 330 329 329 328 329 328 328 327 327 326 326 327 327
294 294 294 293 293 293 294 294 294 294 295 295 296 296 297 301 303 303 304 308 309 313 326 328 328 331 332 332 333 331 332 330 330 330 330 329 328 329 328 329 329 328 327
293 294 294 294 293 292 293 293 293 294 294 294 294 295 296 296 297 302 303 303 303 305 312 316 319 318 329 331 331 331 331 331 330 330 330 330 329 328 328 329 328 328 328
293 293 293 294 293 292 292 292 292 293 293 293 293 293 294 295 296 296 297 301 301 303 304 305 307 313 314 328 328 328 329 329 330 329 329 327 328 328 328 328 328 327 328
292 292 293 293 293 292 292 292 292 292 293 292 292 292 293 293 294 295 295 296 299 301 302 303 302 302 301 308 324 322 325 324 325 326 326 325 327 327 326 326 327 327 326
291 291 292 292 291 290 291 292 292 292 292 292 292 292 292 292 292 292 293 294 295 296 299 300 301 302 300 300 302 312 315 320 322 324 326 326 325 326 325 326 326 326 326
290 290 291 290 290 290 290 290 290 290 290 290 291 290 291 291 291 290 291 292 293 295 295 296 299 301 301 300 300 300 302 304 309 314 319 321 323 322 324 324 323 323 324
289 288 289 289 289 289 290 289 289 290 289 289 290 290 289 290 290 290 290 292 292 292 293 295 296 297 300 299 300 301 300 300 300 299 303 309 317 317 318 320 321 321 321
288 288 288 288 288 288 288 289 289 289 289 289 289 289 289 289 289 289 290 290 290 291 292 293 294 295 297 300 300 299 301 300 300 299 299 299 300 302 306 312 316 318 318
288 287 287 287 287 287 287 288 288 288 289 289 289 289 289 290 290 290 289 289 290 290 291 292 293 294 294 295 295 299 300 301 303 302 300 300 298 299 299 299 304 310 312
287 287 287 286 287 287 287 287 288 288 288 288 289 289 289 289 289 289 289 289 289 290 290 291 292 292 293 293 294 295 296 296 297 300 300 302 303 301 299 299 299 305 309
287 287 286 286 286 287 287 287 287 288 288 288 288 289 288 289 289 289 289 289 291 290 290 290 291 291 292 292 293 293 294 295 295 295 296 296 300 304 304 303 299 299 304
286 286 286 286 286 286 286 287 287 288 287 288 288 288 288 288 288 288 289 289 289 290 290 290 290 291 291 291 291 292 292 292 293 294 294 295 295 295 296 297 298 297 299
285 286 286 285 286 286 286 287 287 287 287 288 288 288 288 288 288 288 288 288 289 289 290 290 290 290 291 291 291 291 291 291 291 292 292 294 296 297 298 298 298 300 300
285 286 286 285 286 286 286 286 287 287 287 287 287 287 287 287 287 287 287 288 288 289 289 290 290 290 291 291 291 291 291 291 291 292 292 292 292 294 295 295 298 298 300
286 286 286 286 286 285 285 286 286 286 286 286 286 287 287 287 287 287 287 287 287 288 289 290 290 291 291 290 291 291 291 291 291 291 291 291 291 292 292 293 294 297 298
286 285 285 285 285 284 285 285 286 286 286 286 286 286 286 286 286 287 287 287 287 288 288 290 291 291 291 291 292 292 292 292 293 292 292 292 292 291 291 292 293 295 296
285 285 284 284 284 284 284 285 285 285 285 285 286 286 286 286 286 287 287 288 288 289 290 290 291 291 292 292 292 292 293 294 294 293 292 292 291 291 291 292 293 293 294
284 284 284 284 284 284 284 284 284 284 284 285 285 285 286 286 286 286 286 287 288 289 289 290 290 290 291 292 292 293 293 294 294 294 293 292 292 292 292 292 293 293 294
284 283 283 284 283 283 283 283 283 283 283 283 284 285 285 285 285 285 286 286 287 287 288 290 290 290 290 291 291 291 292 293 294 294 294 293 293 293 293 293 294 294 296
Wind_Speed
49 47 46 36 16 11 5 11 9 20 22 34 48 56 47 61 66 69 65 65 64 63 63 62 61 60 60 60 61 58 49 45 41 37 41 37 34 29 28 29 30 35 38
47 48 39 46 41 32 12 26 17 5 14 21 26 17 30 29 51 71 63 63 62 59 60 62 61 61 62 61 61 63 55 47 42 43 36 35 34 29 27 27 30 35 37
41 40 46 42 49 45 42 31 23 17 9 9 22 34 28 24 22 37 64 63 61 55 57 57 54 61 63 66 67 66 62 57 48 50 46 39 32 30 34 34 33 31 32
41 41 39 42 42 33 32 36 35 31 29 15 14 13 20 29 30 26 24 51 49 48 52 56 53 52 58 62 67 69 63 53 52 50 52 50 50 46 39 34 38 37 36
40 40 38 41 36 36 36 33 36 33 30 28 19 16 15 11 13 33 28 32 37 49 53 57 55 54 52 58 58 61 63 53 50 54 54 51 48 47 45 42 41 41 40
42 41 40 40 36 34 32 33 32 28 28 27 28 22 20 17 6 10 26 23 33 31 44 53 57 52 52 51 50 50 57 54 52 50 54 52 52 49 45 48 46 44 45
44 45 44 38 38 36 35 37 34 32 28 26 24 23 22 21 19 5 7 24 20 24 32 35 44 59 51 49 50 48 47 51 53 57 58 56 59 59 56 55 55 53 54
41 42 44 43 36 35 36 35 31 29 30 27 25 21 20 20 18 18 15 5 4 3 29 34 31 48 51 57 54 52 52 51 52 48 50 51 56 57 55 57 55 59 54
38 37 38 40 40 38 33 32 31 31 29 27 24 22 21 20 17 18 16 13 9 9 7 14 18 15 40 47 50 44 47 55 55 50 50 54 55 57 56 54 55 52 49
37 32 33 34 35 35 30 27 25 26 26 26 23 22 21 20 21 16 15 17 12 10 5 2 1 7 5 39 41 42 39 43 44 48 48 44 50 43 44 46 47 51 51
34 30 30 31 33 33 28 26 25 25 23 25 25 23 20 20 18 19 17 11 12 12 9 5 6 7 6 5 31 30 33 34 38 36 35 37 45 47 44 43 36 37 39
34 25 28 28 32 34 29 27 28 27 28 28 28 26 24 22 17 15 16 14 10 10 13 14 7 7 7 6 1 15 15 26 29 37 41 40 39 39 39 42 41 39 40
29 26 28 31 32 28 29 30 30 29 28 30 30 29 28 25 20 18 17 17 16 12 12 14 14 11 8 8 6 4 5 7 12 16 22 27 29 31 38 41 41 38 41
29 31 29 29 28 27 27 27 27 29 29 29 29 31 31 30 27 25 23 19 17 16 15 16 18 18 17 14 11 9 4 5 8 10 11 17 20 19 22 26 28 30 38
31 30 27 28 27 27 27 25 24 26 25 26 27 28 31 31 29 24 23 22 22 19 18 16 17 16 19 20 20 17 16 15 17 13 13 11 14 17 17 21 21 22 25
30 26 29 29 29 28 27 27 24 27 25 24 23 24 25 24 26 25 22 20 18 18 20 19 17 15 16 17 24 24 22 25 24 21 19 20 15 18 17 18 22 28 29
23 25 27 27 28 28 27 27 29 30 27 26 24 23 23 26 26 25 24 21 18 17 18 19 17 16 15 15 15 18 25 27 28 29 27 26 27 23 21 20 22 23 23
25 25 25 26 27 27 26 26 25 28 32 33 29 28 29 28 27 25 22 20 19 16 15 15 16 16 16 17 17 16 16 19 23 26 30 32 29 32 31 32 28 22 24
25 26 24 26 26 25 24 24 24 26 28 29 30 30 30 29 28 25 23 19 19 19 17 16 15 16 16 16 16 17 17 18 17 18 21 22 28 31 33 33 32 31 27
25 21 23 28 25 24 23 24 23 25 27 29 29 30 31 31 30 28 24 22 20 19 18 18 17 15 15 16 18 17 17 18 19 19 20 23 22 22 25 28 29 27 27
22 22 25 26 25 24 24 23 23 24 25 27 28 29 27 27 27 26 25 23 21 20 18 19 20 20 19 19 20 21 22 21 18 18 17 18 21 27 28 27 27 26 26
20 23 24 23 24 25 24 21 22 24 25 26 28 27 28 26 26 26 25 23 22 20 16 16 19 20 20 20 19 19 20 21 21 20 20 20 21 22 24 27 29 27 26
21 23 23 24 25 24 21 20 22 22 24 25 26 28 28 28 28 27 27 24 23 22 19 17 18 20 21 20 20 20 19 19 20 21 23 23 24 23 22 24 27 27 26
20 21 24 23 26 23 22 22 23 22 23 24 25 26 27 27 27 28 27 27 27 25 23 21 20 20 20 21 21 21 21 20 20 19 18 20 22 21 21 23 25 25 25
19 21 23 22 24 25 24 24 24 24 23 23 24 25 25 26 27 27 28 27 26 26 26 25 23 21 19 18 20 22 21 21 20 20 18 18 19 19 19 21 23 24 24
18 20 20 20 22 23 24 25 25 26 23 22 22 22 23 25 27 28 29 28 27 26 26 27 27 24 20 17 16 17 18 20 20 19 21 21 20 20 20 21 21 22 23
Wind_Direction
36 47 51 53 66 54 210 35 124 212 216 211 215 218 214 228 220 221 218 220 221 220 221 223 226 229 231 230 228 230 236 238 235 239 239 240 244 245 250 249 252 254 254
35 40 36 55 53 56 59 44 56 147 228 246 236 216 216 271 227 213 214 217 221 222 224 225 226 229 230 233 231 231 240 245 237 233 233 232 232 239 246 249 247 249 252
32 33 34 40 48 47 48 49 51 48 54 225 224 270 259 301 272 206 220 215 219 225 226 225 231 230 232 231 231 236 243 247 239 232 231 231 232 239 243 246 245 246 248
28 33 33 37 41 44 42 52 48 44 54 67 87 163 219 229 237 265 197 210 231 232 238 240 238 237 237 238 234 237 240 239 239 236 237 240 242 241 243 239 238 237 241
28 28 31 38 36 37 34 44 47 43 40 46 56 56 62 147 213 247 265 235 210 220 235 237 244 241 241 239 239 237 236 230 232 229 231 234 237 237 236 237 234 236 238
25 26 27 33 32 36 29 41 41 37 42 40 41 38 36 45 59 214 215 222 229 223 220 236 242 242 243 240 243 243 240 229 226 227 231 232 232 230 231 234 234 230 232
16 18 20 23 26 25 31 34 33 32 28 31 36 32 34 32 28 35 208 221 236 249 220 236 230 238 240 239 246 238 241 241 239 236 237 234 236 237 236 235 237 238 241
11 11 9 11 18 18 25 30 29 26 31 24 25 27 27 19 20 23 31 46 72 183 232 237 226 219 228 236 238 233 240 238 239 237 236 240 241 243 238 244 243 244 241
9 11 2 1 6 9 14 20 17 20 21 22 21 21 22 17 12 16 19 24 26 63 147 189 198 201 213 222 227 225 235 235 234 238 246 243 241 239 245 244 241 240 233
359 4 1 356 1 3 5 8 16 15 14 16 17 16 15 10 1 4 5 2 8 34 31 34 149 166 218 209 217 219 233 235 240 243 245 246 240 238 232 242 241 235 232
344 352 2 353 349 354 356 5 8 10 9 10 15 14 13 10 360 359 359 337 345 358 3 333 6 46 26 176 201 214 213 225 235 240 231 240 242 243 248 242 234 233 235
338 350 1 347 345 346 354 360 5 3 1 0 3 8 10 7 3 348 339 343 338 333 332 323 319 301 330 33 184 187 193 223 232 235 232 234 233 240 240 237 240 242 243
353 358 353 338 343 353 359 358 358 0 359 354 353 353 355 357 357 349 336 332 334 312 280 287 297 278 272 277 306 158 181 214 225 223 219 228 233 239 238 239 237 235 238
350 345 341 340 348 354 355 357 355 355 352 352 350 346 345 346 349 349 345 341 330 322 306 279 268 268 275 265 256 246 191 260 261 247 237 227 214 226 228 229 231 230 232
338 344 353 352 353 354 353 354 350 353 352 348 347 342 341 345 349 348 345 339 333 323 311 305 293 277 259 261 264 252 233 247 253 255 259 247 232 231 235 249 238 229 230
347 350 353 352 352 352 354 350 351 351 354 353 347 345 342 342 341 344 341 333 324 318 311 310 305 296 285 259 251 248 242 249 246 251 258 265 259 251 253 244 249 245 243
356 353 352 353 352 353 354 352 347 347 353 357 354 355 351 346 343 336 333 331 325 314 306 306 307 308 304 295 279 262 249 248 244 248 256 258 254 260 265 262 257 253 248
353 351 353 351 352 352 351 349 349 349 350 351 356 356 354 345 340 337 335 332 333 332 317 304 305 307 307 302 297 285 268 254 252 249 244 244 243 248 257 262 269 264 250
348 345 349 349 351 350 349 349 348 350 350 350 351 350 349 347 348 348 347 341 336 332 326 317 309 302 298 297 293 290 286 279 268 259 247 246 242 240 239 245 246 245 249
343 351 352 349 352 350 349 349 350 352 350 350 350 349 351 351 353 350 346 343 336 328 326 317 309 299 293 288 288 281 282 278 270 268 262 250 237 240 252 249 242 242 243
353 350 350 355 352 352 349 349 352 353 352 350 351 355 356 356 356 353 349 341 334 327 316 315 311 307 300 288 283 281 280 281 273 269 268 261 259 248 245 249 251 247 247
353 355 351 350 349 348 345 349 353 356 354 353 353 358 0 358 357 358 355 350 344 334 320 314 312 311 307 300 297 288 280 276 273 269 268 270 268 265 256 249 249 252 248
357 354 353 352 351 351 354 356 355 354 354 357 358 0 3 359 360 2 1 1 357 350 341 322 306 305 304 301 297 290 282 280 278 272 269 268 266 267 260 251 246 248 248
359 2 0 0 3 4 3 358 356 354 354 358 1 3 4 3 1 3 3 5 9 7 1 348 333 319 307 298 291 286 283 282 279 276 267 263 264 262 258 249 243 245 244
5 3 3 5 7 9 8 6 1 356 355 356 357 360 2 3 4 5 4 3 2 4 7 5 359 348 333 314 298 284 279 273 268 260 256 254 254 255 254 251 249 244 240
3 3 5 6 7 6 7 6 6 5 2 1 360 358 360 1 4 7 6 4 4 3 2 4 3 2 356 344 326 306 286 270 263 260 254 249 248 247 247 249 248 245 247